Regional Weather Roundup
Issued by NWS

Home | Current Version | Previous Version | Text Only | Print | Product List | Glossary Off
Versions: 1 2 3 4 5 6 7 8 9 10 11 12 13 14 15 16 17 18 19 20 21 22 23 24 25 26 27 28 29 30 31 32 33 34 35 36 37 38 39 40 41 42 43 44 45 46 47 48 49 50

000
ASUS43 KDMX 291407
RWRIA

WEATHER ROUNDUP FOR IOWA
NATIONAL WEATHER SERVICE DES MOINES IA
900 AM CDT SAT AUG 29 2015

NOTE: "FAIR" INDICATES FEW OR NO CLOUDS BELOW 12,000 FEET WITH NO
SIGNIFICANT WEATHER AND/OR OBSTRUCTIONS TO VISIBILITY.

* - THESE STATIONS ARE NOT NWS STATIONS...THUS NOT UNDER NWS
QUALITY CONTROL.  THEY ALSO DO NOT REPORT WEATHER SUCH
AS PRECIPITATION OR FOG.

IAZ001>003-012>014-020>022-031>034-043>046-291500-
   NORTHWEST IOWA

CITY           SKY/WX    TMP DP  RH WIND       PRES   REMARKS
CARROLL *      CLOUDY    63  63 100 N7        30.05S
CHEROKEE *     CLOUDY    57  57 100 CALM      30.08R FOG
DENISON *      CLOUDY    61  59  94 CALM      30.04F FOG
LE MARS *      CLOUDY    57  57 100 CALM      30.09S FOG
ORANGE CITY *  CLOUDY    57  57 100 CALM      30.08S FOG
SHELDON *      FOG       57  57 100 CALM      30.07S VSB 1
SIOUX CITY     CLOUDY    62  57  83 CALM      30.08R
SPENCER        FOG       58  55  90 N3        30.08R VSB 1
STORM LAKE *   FOG       57  57 100 VRB5      30.07S VSB 1/4
$$

IAZ055>058-069>071-079>083-090>094-291500-
   SOUTHWEST IOWA

CITY           SKY/WX    TMP DP  RH WIND       PRES   REMARKS
ATLANTIC *     CLOUDY    63  61  94 N9        30.05R
AUDUBON *      CLOUDY    63  59  88 N6        30.05F
CLARINDA *     CLOUDY    63  63 100 N8        30.05R
COUNCIL BLFS * CLOUDY    59  59 100 N8        30.06S FOG
CRESTON *      CLOUDY    63  63 100 N9        30.04S FOG
HARLAN  *      CLOUDY    61 N/A N/A N8        30.09S
LAMONI         CLOUDY    66  63  90 N8        30.01R
RED OAK *      CLOUDY    63  61  94 N10       30.04F
SHENANDOAH *   CLOUDY    63  63 100 N7        30.05R FOG
$$

IAZ047>049-059>061-072>074-084-291500-
   CENTRAL IOWA

CITY           SKY/WX    TMP DP  RH WIND       PRES   REMARKS
AMES           CLOUDY    63  62  97 N10       30.02S FOG
ANKENY *       CLOUDY    64  63  94 N8        30.00F
CHARITON *     CLOUDY    64  64 100 NW7       30.01R FOG
DES MOINES     CLOUDY    65  61  87 N7        30.00S
GRINNELL*      FOG       66  64  94 NW7       30.00S VSB 1/2
KNOXVILLE *    CLOUDY    64  63  94 NW9       29.99S FOG
MARSHALLTOWN   CLOUDY    65  63  93 N8        30.01R
PELLA *        CLOUDY    66  66 100 NW6       30.00S FOG
PERRY *        CLOUDY    63  63 100 N8        30.04S
$$

IAZ004>006-015-016-023>025-035-036-291500-
   NORTH CENTRAL IOWA

CITY           SKY/WX    TMP DP  RH WIND       PRES   REMARKS
ALGONA *       FOG       59  57  94 N7        30.07R VSB 1/4
CLARION *      CLOUDY    63  61  94 N6        30.05R
ESTHERVILLE    FOG       56  56 100 N6        30.07R VSB 1/2
FORT DODGE *   CLOUDY    59  57  94 N6        30.06S VSB 3/4
MASON CITY     CLOUDY    61  60  97 N10       30.07R FOG
FOREST CITY *  CLOUDY    59  59 100 N6        30.06R FOG
IOWA FALLS *   FOG       63  63 100 N8        30.04S VSB 3/4
$$

IAZ007>011-017>019-026>030-037>042-050>054-066-291500-
   NORTHEAST IOWA

CITY           SKY/WX    TMP DP  RH WIND       PRES   REMARKS
CEDAR RAPIDS   CLOUDY    67  67 100 NW5       29.97F FOG
CHARLES CITY * CLOUDY    61  61 100 N8        30.05R FOG
CLINTON *      CLOUDY    64  64 100 E3        30.01S
DECORAH *      CLOUDY    61  61 100 N7        30.04R FOG
DUBUQUE        CLOUDY    66  64  93 CALM      30.00S FOG
MONTICELLO *   CLOUDY    66  66 100 NE3       29.98F FOG
OELWEIN *      CLOUDY    64  64 100 N10       30.02R FOG
WATERLOO       CLOUDY    64  63  96 N10       30.01R
$$

IAZ064-065-067-068-078-291500-
   EAST CENTRAL IOWA

CITY           SKY/WX    TMP DP  RH WIND       PRES   REMARKS
DAVENPORT      LGT RAIN  68  65  90 CALM      29.99S
IOWA CITY      CLOUDY    67  67 100 CALM      29.98F FOG
MT. PLEASANT * CLOUDY    72  63  73 CALM      29.98S
MUSCATINE *    CLOUDY    70  64  83 W5        29.98R
QUAD CITIES    CLOUDY    69  63  81 CALM      29.98R
$$

IAZ062-063-075>077-085>089-095>099-291500-
   SOUTHEAST IOWA

CITY           SKY/WX    TMP DP  RH WIND       PRES   REMARKS
BURLINGTON     MOSUNNY   71  65  81 SW7       29.97F
FAIRFIELD *    CLOUDY    70  64  83 SW3       29.98S
FORT MADISON * CLOUDY    70  64  83 S7        29.98F
KEOKUK *       CLOUDY    72  64  78 SW7       29.97F
OSKALOOSA *    CLOUDY    67  66  96 NW3       29.99S
CENTERVILLE *  CLOUDY    68  68 100 NW6       30.00S FOG
OTTUMWA        CLOUDY    69  68  96 W5        29.97S
WASHINGTON *     N/A    N/A N/A N/A MISG        N/A
$$

ABBREVIATIONS USED IN REMARKS
   TC - TEMPERATURES IN CELSIUS
  WCI - WIND CHILL INDEX
   HX - HEAT INDEX
  VSB - VISIBILITY
$$



USA.gov is the U.S. government's official web portal to all federal, state and local government web resources and services.